FW4335 Weather Reports


Display with metric or nautical units.
time (UTC)temp
F
wind
direction
speed
MPH
gust
MPH
rain 1hr
in
rain 24hr
in
rain mn
in
humidity
%
barometer
mb
20260902053030 60 360 0.0 3.0 0.00 0.00 0.00 76 1014.2
20260902051530 60 323 0.0 1.0 0.00 0.00 0.00 75 1014.0
20260902050034 60 282 0.0 5.0 0.00 0.00 0.00 75 1013.8
20260902043035 61 270 0.0 0.0 0.00 0.00 0.00 72 1013.6
20260902041536 61 268 0.0 4.0 0.00 0.00 0.00 71 1013.4
20260902040035 62 270 0.0 0.0 0.00 0.00 0.00 70 1013.3
20260902034535 62 269 0.0 2.0 0.00 0.00 0.00 69 1013.0
20260902033031 62 269 0.0 7.0 0.00 0.00 0.00 68 1013.0
20260902031536 62 259 0.0 7.0 0.00 0.00 0.00 69 1013.0
20260902030034 61 282 0.0 3.0 0.00 0.00 0.00 71 1013.1
20260902024536 61 247 0.0 1.0 0.00 0.00 0.00 71 1013.1
20260902014610 66 321 0.0 3.0 0.00 0.00 0.00 65 1012.6
20260902013037 65 275 0.0 2.0 0.00 0.00 0.00 65 1012.6
20260902011534 66 292 0.0 4.0 0.00 0.00 0.00 64 1012.4
20260902010033 67 294 0.0 4.0 0.00 0.00 0.00 62 1012.3
20260902004610 68 297 0.0 5.0 0.00 0.00 0.00 63 1012.1
20260902003109 67 279 0.0 7.0 0.00 0.00 0.00 62 1012.0
20260902001609 69 308 1.0 10.0 0.00 0.00 0.00 62 1011.9
20260901234610 68 306 0.0 5.0 0.00 0.00 0.00 62 1012.0
20260901233035 69 334 0.0 9.0 0.00 0.00 0.00 61 1011.9
20260901231532 70 305 1.0 8.0 0.00 0.00 0.00 61 1011.9
20260901230036 70 296 0.0 7.0 0.00 0.00 0.00 61 1011.8
20260901224533 69 308 0.0 8.0 0.00 0.00 0.00 62 1011.8
20260901223030 69 329 1.0 5.0 0.00 0.00 0.00 61 1011.7
20260901221610 70 322 1.0 8.0 0.00 0.00 0.00 60 1011.4
20260901214533 71 339 1.0 13.0 0.00 0.00 0.00 60 1011.1
20260901211608 70 323 1.0 7.0 0.00 0.00 0.00 61 1011.4
20260901210035 70 322 1.0 6.0 0.00 0.00 0.00 59 1011.6
20260901204608 72 320 1.0 7.0 0.00 0.00 0.00 56 1011.7
20260901203151 74 334 1.0 7.0 0.00 0.00 0.00 57 1011.7
20260901201534 73 304 1.0 9.0 0.00 0.00 0.00 57 1011.8
20260901194536 73 348 1.0 6.0 0.00 0.00 0.00 59 1012.1
20260901193122 0 0 0.0 0.0 0.00 0.00 0.00 100
20260901190035 72 326 1.0 7.0 0.00 0.00 0.00 60 1012.7
20260901184537 72 349 0.0 4.0 0.00 0.00 0.00 61 1012.8
20260901183030 71 347 0.0 5.0 0.00 0.00 0.00 63 1013.0
20260901174536 68 338 0.0 4.0 0.00 0.00 0.00 68 1013.3
20260901173151 68 353 0.0 4.0 0.00 0.00 0.00 69 1013.3
20260901171536 64 322 0.0 2.0 0.00 0.00 0.00 78 1013.3
20260901164534 62 345 0.0 2.0 0.00 0.00 0.00 80 1013.5
20260901161534 60 225 0.0 0.0 0.00 0.00 0.00 89 1013.6
20260901154609 56 225 0.0 0.0 0.00 0.00 0.00 93 1013.4
20260901153106 54 225 0.0 0.0 0.00 0.00 0.00 94 1013.3
20260901151536 52 225 0.0 1.0 0.00 0.00 0.00 94 1013.3
20260901150148 52 225 0.0 1.0 0.00 0.00 0.00 94 1013.2
20260901144534 51 225 0.0 0.0 0.00 0.00 0.00 94 1013.1
20260901143032 50 225 0.0 1.0 0.00 0.00 0.00 94 1013.0
20260901141536 50 225 0.0 1.0 0.00 0.00 0.00 94 1012.9
20260901140037 49 225 0.0 1.0 0.00 0.00 0.00 93 1012.7
20260901134535 49 225 0.0 2.0 0.00 0.00 0.00 93 1012.5
20260901133029 49 214 0.0 2.0 0.00 0.00 0.00 92 1012.4
20260901130035 49 184 0.0 2.0 0.00 0.00 0.00 92 1012.1
20260901123031 49 206 0.0 1.0 0.00 0.00 0.00 91 1012.0
20260901121535 49 225 0.0 1.0 0.00 0.00 0.00 91 1012.0
20260901111536 49 198 1.0 3.0 0.00 0.00 0.00 90 1011.8
20260901110035 49 192 0.0 2.0 0.00 0.00 0.00 90 1011.8
20260901104530 49 204 0.0 2.0 0.00 0.00 0.00 89 1011.8
20260901103036 49 206 0.0 3.0 0.00 0.00 0.00 89 1011.8
20260901101536 50 241 0.0 3.0 0.00 0.00 0.00 88 1011.7
20260901094609 50 212 0.0 3.0 0.00 0.00 0.00 88 1011.8
20260901093034 50 180 0.0 1.0 0.00 0.00 0.00 88 1011.8
20260901091536 50 225 0.0 2.0 0.00 0.00 0.00 87 1011.5
20260901084533 50 210 0.0 2.0 0.00 0.00 0.00 86 1011.6
20260901083034 51 202 0.0 2.0 0.00 0.00 0.00 85 1011.7
20260901081533 51 202 0.0 2.0 0.00 0.00 0.00 84 1011.8
20260901080034 52 180 0.0 0.0 0.00 0.00 0.00 84 1011.6
20260901074530 52 200 0.0 2.0 0.00 0.00 0.00 83 1011.5
20260901073109 52 229 1.0 4.0 0.00 0.00 0.00 82 1011.4
20260901071534 52 200 1.0 3.0 0.00 0.00 0.00 81 1011.4
20260901070051 53 202 0.0 4.0 0.00 0.00 0.00 80 1011.3
20260901064609 53 220 0.0 4.0 0.00 0.00 0.00 79 1011.3
20260901063035 54 240 0.0 3.0 0.00 0.00 0.00 78 1011.5
20260901061536 54 199 0.0 2.0 0.00 0.00 0.00 78 1011.5
20260901060034 54 206 0.0 2.0 0.00 0.00 0.00 77 1011.5